LiveATC.Net - Listen to live air traffic control over the Internet!


ICAO: KBOK  IATA: BOK   Airport: Brookings Airport
City: Brookings   State/Province: Oregon
Country: United States   Continent: North America
KBOK METAR Weather: KBOK 161856Z AUTO 00000KT 6SM HZ CLR 18/08 A3017 RMK AO2 SLP229 T01780078
KBOK Flight Activity (FlightAware)
KBOK Webcam:  (Airport Webcams) 
KBOK Airport Info   (AirNav) (iFlightPlanner)
KBOK VFR Sectional Chart   (iFlightPlanner) 
KBOK IFR Low Chart   (iFlightPlanner) 

KBOK CTAF
Feed Status: UP   Listeners: 0
Listen right in your browser - requires Flash (in browser, requires Flash)
Click here to listen with your own player (launches your MP3 player)
KBOK CTAF Audio Archives
FacilityFrequency
Brookings CTAF122.800

NOTICE

Unauthorized use prohibited. See LiveATC.net Terms of Service


Find LiveATC Audio Streams


Airport/ARTCC Code

Frequency Search
(e.g., 124.400, 128.75)
Site-wide search
 


Browse LiveATC Feeds
Top 50 LiveATC Feeds
Bad Weather Areas

LiveATC FAQ
Offer a LiveATC Feed
Contact LiveATC.net
Press Inquiries

LiveATC on iPhone
LiveATC on Android

Windows Phone
Windows 8/10

LiveATC Mobile
(Mobile browser)

ATC Audio Archives
Interesting Recordings

LiveATC Forums


Home Page
About LiveATC.net
Make a Donation
Terms of Use
Privacy Policy

Canadian Air Freqs

AIRMETs/SIGMETs

FAA Airport Status
Nat'l Airspace Status
Arrival Demand Charts


Server Software By:
Icecast.org
Liquidsoap